Vineland Escarpment

*Note: All times are displayed in the local standard time of the station location.
**Rain - Equipment is designed to accurately record liquid precipitation; under conditions when precipitation is not in liquid form, the data displayed may not properly reflect rainfall values.

Date Max Temp
(°C)
Min Temp
(°C)
Avg Temp
(°C)
Rain (mm) Avg RH (%)
Sat, Feb 17, 2018 -1.5 -6.3 -3.3 0.0 72.1
Fri, Feb 16, 2018 4.8 -6.0 -0.3 0.0 76.2
Thu, Feb 15, 2018 8.0 2.9 5.9 0.6 94.4
Wed, Feb 14, 2018 4.6 -4.2 2.3 13.2 74.1
Tue, Feb 13, 2018 -1.4 -13.9 -6.9 1.0 72.0
Mon, Feb 12, 2018 -2.3 -8.8 -5.3 0.4 69.9
Sun, Feb 11, 2018 0.7 -4.2 -2.0 5.2 89.5
DateTime Avg Temp (°C) Rain (mm) RH (%)
Sun, Feb 18, 2018 04:00 -2.5 0.0 86.3
Sun, Feb 18, 2018 03:00 -2.1 0.0 83.5
Sun, Feb 18, 2018 02:00 -1.9 0.0 83.3
Sun, Feb 18, 2018 01:00 -2.0 0.0 86.5
Sun, Feb 18, 2018 00:00 -1.8 0.0 84.0
Sat, Feb 17, 2018 23:00 -1.6 0.0 80.0
Sat, Feb 17, 2018 22:00 -1.6 0.0 73.0
Sat, Feb 17, 2018 21:00 -1.8 0.0 72.3
Sat, Feb 17, 2018 20:00 -1.8 0.0 69.0
Sat, Feb 17, 2018 19:00 -1.9 0.0 65.5
Sat, Feb 17, 2018 18:00 -1.8 0.0 60.5
Sat, Feb 17, 2018 17:00 -1.7 0.0 60.0
Sat, Feb 17, 2018 16:00 -1.5 0.0 63.5
Sat, Feb 17, 2018 15:00 -1.5 0.0 61.8
Sat, Feb 17, 2018 14:00 -1.7 0.0 63.0
Sat, Feb 17, 2018 13:00 -1.7 0.0 63.5
Sat, Feb 17, 2018 12:00 -1.7 0.0 63.5
Sat, Feb 17, 2018 11:00 -2.0 0.0 66.0
Sat, Feb 17, 2018 10:00 -2.9 0.0 69.3
Sat, Feb 17, 2018 09:00 -4.3 0.0 74.8
Sat, Feb 17, 2018 08:00 -5.9 0.0 79.0
Sat, Feb 17, 2018 07:00 -6.2 0.0 81.3
Sat, Feb 17, 2018 06:00 -6.3 0.0 82.8
Sat, Feb 17, 2018 05:00 -6.2 0.0 82.8
Sat, Feb 17, 2018 04:00 -5.9 0.0 81.5
Sat, Feb 17, 2018 03:00 -6.0 0.0 79.3
Sat, Feb 17, 2018 02:00 -6.1 0.0 77.8
Sat, Feb 17, 2018 01:00 -5.9 0.0 76.0
Sat, Feb 17, 2018 00:00 -6.0 0.0 77.3
Fri, Feb 16, 2018 23:00 -5.7 0.0 76.0
Fri, Feb 16, 2018 22:00 -5.3 0.0 71.3
Fri, Feb 16, 2018 21:00 -4.5 0.0 67.3
Fri, Feb 16, 2018 20:00 -4.0 0.0 62.8
Fri, Feb 16, 2018 19:00 -3.6 0.0 60.3
Fri, Feb 16, 2018 18:00 -3.1 0.0 59.3
Fri, Feb 16, 2018 17:00 -1.7 0.0 58.5
Fri, Feb 16, 2018 16:00 -0.6 0.0 60.0
Fri, Feb 16, 2018 15:00 0.4 0.0 60.8
Fri, Feb 16, 2018 14:00 0.8 0.0 60.5
Fri, Feb 16, 2018 13:00 1.1 0.0 63.8
Fri, Feb 16, 2018 12:00 1.5 0.0 70.8
Fri, Feb 16, 2018 11:00 1.0 0.0 82.8
Fri, Feb 16, 2018 10:00 1.2 0.0 82.3
Fri, Feb 16, 2018 09:00 0.9 0.0 83.0
Fri, Feb 16, 2018 08:00 0.8 0.0 86.0
Fri, Feb 16, 2018 07:00 1.6 0.0 86.3
Fri, Feb 16, 2018 06:00 2.3 0.0 89.8
Fri, Feb 16, 2018 05:00 2.4 0.0 88.0


asterix Register now to access more data! asterix